Regional Weather Roundup
Issued by NWS Memphis, TN

Home | Current Version | Previous Version | Text Only | Print | Product List | Glossary On
Versions: 1 2 3 4 5 6 7 8 9 10 11 12 13 14 15 16 17 18 19 20 21 22 23 24 25 26 27 28 29 30 31 32 33 34 35 36 37 38 39 40 41 42 43 44 45 46 47 48 49 50
000
ASUS44 KMEG 181810
RWRMEG
MEMPHIS CWA HOURLY WEATHER ROUNDUP
NATIONAL WEATHER SERVICE MEMPHIS TN
100 PM CDT FRI APR 18 2014

...WEST TENNESSEE...

CITY           SKY/WX    TMP DP  RH WIND       PRES   REMARKS
MEMPHIS INTL   CLOUDY    68  50  52 E6        30.22F
6HR MIN TEMP:  56; 6HR MAX TEMP:  70;

NWS MEMPHIS      N/A     68 N/A N/A MISG        N/A
JACKSON        PTSUNNY   67  48  50 NE3       30.25F
6HR MIN TEMP:  53; 6HR MAX TEMP:  67;

LEXINGTON      SUNNY     70  46  43 VRB7      30.24F
SAVANNAH       CLOUDY    67  47  48 SE3       30.25
DYERSBURG      PTSUNNY   70  46  43 CALM      30.26F
6HR MIN TEMP:  52; 6HR MAX TEMP:  70;

UNION CITY     SUNNY     70  50  49 N8        30.24F
PARIS          CLOUDY    65  48  53 CALM      30.26F


...EASTERN ARKANSAS...

CITY           SKY/WX    TMP DP  RH WIND       PRES   REMARKS
JONESBORO      SUNNY     70  45  40 VRB7G17   30.24F
6HR MIN TEMP:  54; 6HR MAX TEMP:  70;

WEST MEMPHIS   PTSUNNY   71  49  45 N9        30.22F
6HR MIN TEMP:  54; 6HR MAX TEMP:  71;

BATESVILLE     SUNNY     72  43  35 E6        30.24F
6HR MIN TEMP:  48; 6HR MAX TEMP:  72;

NEWPORT        SUNNY     69  47  45 NE9G17    30.26F
6HR MIN TEMP:  50; 6HR MAX TEMP:  69;

WALNUT RIDGE   SUNNY     70  48  46 NE10      30.26F
6HR MIN TEMP:  50; 6HR MAX TEMP:  70;

BLYTHEVILLE    SUNNY     72  48  42 N9        30.25F
6HR MIN TEMP:  52; 6HR MAX TEMP:  73;

SEARCY         SUNNY     70  47  43 NE13      30.25F
6HR MIN TEMP:  49; 6HR MAX TEMP:  70;

STUTTGART      MOSUNNY   72  46  40 N15       30.24S
6HR MIN TEMP:  54; 6HR MAX TEMP:  72;

PINE BLUFF     PTSUNNY   69  50  50 NE10      30.22F
6HR MIN TEMP:  54; 6HR MAX TEMP:  71; 6HR PCP: TRACE;

MONTICELLO     PTSUNNY   72  50  45 NE12G17   30.20F
6HR MIN TEMP:  54; 6HR MAX TEMP:  73; 6HR PCP: TRACE;



...NORTH MISSISSIPPI...

CITY           SKY/WX    TMP DP  RH WIND       PRES   REMARKS
TUPELO         CLOUDY    63  49  60 E7        30.24F
6HR MIN TEMP:  57; 6HR MAX TEMP:  65;

OXFORD         CLOUDY    66  50  55 NE8       30.23S
OLIVE BRANCH   PTSUNNY   64  52  63 NE6       30.23F
TUNICA         MOSUNNY   68  48  49 NE7       30.23F
CLARKSDALE       N/A     68  54  60 N10       30.22F
CORINTH        CLOUDY    68  46  45 E3        30.24F
GRENADA        MOSUNNY   70  54  56 SE10      30.20F
GREENWOOD      CLOUDY    71  55  56 NE9       30.18F
6HR MIN TEMP:  55; 6HR MAX TEMP:  72;

COLUMBUS       CLOUDY    62  55  75 E7        30.21F
6HR MIN TEMP:  57; 6HR MAX TEMP:  62; 6HR PCP: TRACE;

STARKVILLE     CLOUDY    59  54  82 CALM      30.21F
GOLDEN TRIANGL CLOUDY    61  55  82 NE9       30.24F


...SOUTHEAST MISSOURI...

CITY           SKY/WX    TMP DP  RH WIND       PRES   REMARKS
DONIPHAN         N/A     72  38  29 SE5         N/A
WEST PLAINS    SUNNY     69  40  34 NE6       30.26F
6HR MIN TEMP:  44; 6HR MAX TEMP:  70;

POPLAR BLUFF   MOSUNNY   70  41  34 E14       30.25F
6HR MIN TEMP:  50; 6HR MAX TEMP:  71;

CAPE GIRARDEAU MOSUNNY   71  42  35 VRB5      30.26F
6HR MIN TEMP:  48; 6HR MAX TEMP:  72;



...NORTHWEST ALABAMA...

CITY           SKY/WX    TMP DP  RH WIND       PRES   REMARKS
MUSCLE SHOALS  CLOUDY    62  45  53 E6        30.26F
6HR MIN TEMP:  59; 6HR MAX TEMP:  62;



...MIDDLE TENNESSEE...

CITY           SKY/WX    TMP DP  RH WIND       PRES   REMARKS
NASHVILLE      CLOUDY    67  43  41 CALM      30.28F
6HR MIN TEMP:  54; 6HR MAX TEMP:  67;

CLARKSVILLE    CLOUDY    68  48  48 VRB3      30.26F
6HR MIN TEMP:  48; 6HR MAX TEMP:  69;

DICKSON        PTSUNNY   63  41  45 SE3       30.27F
COLUMBIA       PTSUNNY   66  52  59 CALM      30.25F
LEWISBURG      CLOUDY    63  42  46 N3        30.27F


...WESTERN KENTUCKY...

CITY           SKY/WX    TMP DP  RH WIND       PRES   REMARKS
PADUCAH        SUNNY     72  41  32 CALM      30.25F
6HR MIN TEMP:  50; 6HR MAX TEMP:  73;

FORT CAMPBELL  MOSUNNY   68  50  52 VRB6      30.26F


...CENTRAL ARKANSAS...

CITY           SKY/WX    TMP DP  RH WIND       PRES   REMARKS
LITTLE ROCK    MOSUNNY   72  45  37 E13       30.23F
6HR MIN TEMP:  54; 6HR MAX TEMP:  72;



SKY/WX REPORTED AS FAIR MEANS FEW OR NO CLOUDS BELOW
12 THOUSAND FEET.




USA.gov is the U.S. government's official web portal to all federal, state and local government web resources and services.